Back to catalog

GALILEO 33 (138)

AliveNavigationMEO
NORAD 67160·PAYLOAD·🇪🇺 EU

Launched Dec 17, 2025 from Guiana Space Centre

Loading…

Next Passes (next 24 hours)

TLE

FreshSource: CelesTrak SupGP

Epoch: Sep 13, 2026, 23:59 UTC

1 67160C 25302A   26256.99979167  .00000000  00000+0  00000+0 0  2564
2 67160  54.3925  99.5989 0002973 141.8443 161.1829  1.70474476    14

Track GALILEO 33 (138) in real time with AllMySat

Download on the App Store